• Join FlightAware (Why Join?)
  • Login
  • US Flag 
06:24AM EST


 

Airport Tracker/Info


-or-


 

Live Flight TrackerFlight Track Log ✈ RPA3392 ✈ 26-May-2013 ✈ KDCA - KALB

Flight Track Log - Related Links

Times and Time Zones

All times are in EDT time to prevent confusion due to time zone crossing. See the RPA3392 flight status page for this flight to view local times or setup timezone preferences in your user account.

Time Position Orientation Groundspeed Altitude Reporting Facility
EDT Latitude Longitude Course Direction KTS MPH feet Rate Location/Type
10:12PM 38.8833 -77.0500 90° East 147 169 2,100  Level Potomac TRACON
10:13PM 38.9167 -77.1000 311° West 225 259 3,700 2,286 Climbing Potomac TRACON
10:14PM 38.9782 -76.6602 57° Northeast  Level FlightAware Approximate
10:14PM 38.9833 -77.1667 322° Northwest 262 302 6,900  Level Potomac TRACON
10:15PM 39.0271 -76.5355 67° East  Level FlightAware Approximate
10:16PM 39.0764 -76.4106 61° Northeast  Level FlightAware Approximate
10:16PM 39.0669 -77.0700 42° Northeast 255 293 12,000  Level Washington Center
10:17PM 39.1167 -76.2837 90° East  Level FlightAware Approximate
10:17PM 39.0767 -76.9500 84° East 290 334 14,200  Level Washington Center
10:18PM 39.0906 -76.8164 82° East 329 379 15,200 1,412 Climbing Washington Center
10:19PM 39.1044 -76.6775 83° East 367 422 17,000 1,587 Climbing Washington Center
10:20PM 39.1203 -76.5361 82° East 383 441 18,400 1,350 Climbing Washington Center
10:21PM 39.1317 -76.3864 84° East 405 466 19,700 1,300 Climbing Washington Center
10:22PM 39.1472 -76.2314 83° East 425 489 21,000 639 Climbing Washington Center
10:23PM 39.1708 -76.0789 79° East 430 495 21,000  Level Washington Center
10:24PM 39.1900 -75.9264 81° East 430 495 21,000 400 Level Washington Center
10:25PM 39.2550 -75.8006 56° Northeast 419 482 21,800 958 Climbing Washington Center
10:26PM 39.3364 -75.6961 45° Northeast 405 466 22,900 610 Climbing Washington Center
10:27PM 39.4197 -75.5889 45° Northeast 405 466 23,000 541 Climbing Washington Center
10:28PM 39.5031 -75.4814 45° Northeast 410 472 24,000 1,000 Climbing Washington Center
10:29PM 39.5864 -75.3708 46° Northeast 416 479 25,000 508 Climbing Washington Center
10:30PM 39.6714 -75.2572 46° Northeast 427 491 25,000 496 Level Washington Center
10:31PM 39.7625 -75.1244 48° Northeast 437 503 26,000 934 Climbing Washington Center
10:32PM 39.8392 -75.0186 47° Northeast 443 510 26,900 1,059 Climbing Washington Center
10:33PM 39.9303 -74.8853 48° Northeast 443 510 28,100 1,032 Climbing Washington Center
10:34PM 39.9664 -74.8389 45° Northeast 446 513 28,500 568 Climbing New York Center
10:35PM 40.0583 -74.7061 48° Northeast 446 513 29,000 250 Climbing New York Center
10:36PM 40.1436 -74.5858 47° Northeast 451 519 29,000  Level New York Center
10:37PM 40.3017 -74.3883 44° Northeast 467 537 29,000  Level Boston Center
10:38PM 40.3992 -74.2850 39° Northeast 454 522 29,000  Level Boston Center
10:39PM 40.4947 -74.1811 40° Northeast 449 517 29,000 -300 Level Boston Center
10:40PM 40.5900 -74.0744 40° Northeast 443 510 28,400 -1,550 Descending Boston Center
10:41PM 40.6872 -73.9783 37° Northeast 443 510 25,900 -2,200 Descending Boston Center
10:42PM 40.7783 -73.8764 40° Northeast 433 498 24,000 -950 Descending Boston Center
10:43PM 40.8650 -73.7739 42° Northeast 423 487 24,000 -50 Level Boston Center
10:44PM 40.9347 -73.6903 42° Northeast 418 481 23,900 -500 Descending Boston Center
10:45PM 41.0606 -73.5989 29° Northeast 403 464 23,000 -450 Descending Boston Center
10:46PM 41.1669 -73.6092 356° North 372 428 23,000  Level Boston Center
10:47PM 41.2731 -73.6278 352° North 372 428 23,000 -450 Level Boston Center
10:48PM 41.3792 -73.6381 356° North 377 434 22,100 -1,400 Descending Boston Center
10:49PM 41.4789 -73.6508 355° North 377 434 20,200 -2,000 Descending Boston Center
10:50PM 41.5769 -73.6611 356° North 360 414 18,100 -1,950 Descending Boston Center
10:51PM 41.6642 -73.6739 354° North 348 400 16,300 -2,150 Descending Boston Center
10:52PM 41.7661 -73.6842 356° North 342 394 13,800 -2,600 Descending Boston Center
10:53PM 41.8558 -73.6972 354° North 331 381 11,100 -1,254 Descending Boston Center
10:55PM 41.9597 -73.7103 355° North 314 361 11,000 -50 Descending Boston Center
10:55PM 42.0244 -73.7172 355° North 302 348 11,000  Level Boston Center
10:56PM 42.0411 -73.7175 359° North 282 325 11,000  Level Boston Center
10:56PM 42.0972 -73.7244 355° North 278 320 11,000  Level Boston Center
10:57PM 42.1181 -73.7275 354° North 253 291 11,000  Level Boston Center
10:57PM 42.1617 -73.7342 354° North 263 303 11,000 -500 Level Boston Center
10:58PM 42.1867 -73.7403 350° North 240 276 10,500 -1,800 Descending Boston Center
10:58PM 42.2325 -73.7467 354° North 233 268 9,200 -1,672 Descending Boston Center
10:59PM 42.2492 -73.7472 359° North 230 265 8,800 -1,200 Descending Boston Center
10:59PM 42.2906 -73.7564 351° North 233 268 8,000 -1,279 Descending Boston Center
11:00PM 42.3114 -73.7597 353° North 226 260 7,500 -1,500 Descending Boston Center
11:00PM 42.3553 -73.7661 354° North 226 260 6,500 -1,400 Descending Boston Center
11:01PM 42.3717 -73.7694 351° North 213 245 6,100 -1,600 Descending Boston Center
11:01PM 42.4133 -73.7758 354° North 216 249 4,900 -1,475 Descending Boston Center
11:02PM 42.4300 -73.7789 352° North 210 242 4,600 -1,000 Descending Boston Center
11:03PM 42.4717 -73.7856 353° North 216 249 3,700 -793 Descending Boston Center
11:04PM 42.5486 -73.7983 353° North 209 241 3,000 -650 Descending Boston Center
11:05PM 42.5922 -73.7994 359° North 216 249 2,400 -536 Descending Boston Center
11:06PM 42.6547 -73.8092 353° North 210 242 2,000 -400 Descending Boston Center